Regional Weather Roundup
Issued by NWS Cleveland, OH

Home | Current Version | Previous Version | Graphics & Text | Print | Product List | Glossary On
Versions: 1 2 3 4 5 6 7 8 9 10 11 12 13 14 15 16 17 18 19 20 21 22 23 24 25 26 27 28 29 30 31 32 33 34 35 36 37 38 39 40 41 42 43 44 45 46 47 48 49 50
000
ASUS41 KCLE 011100
RWRCLE
OHIO REGIONAL WEATHER ROUNDUP
NATIONAL WEATHER SERVICE WILMINGTON, OH
600 AM EST SUN MAR 01 2015

NOTE: "FAIR" INDICATES FEW OR NO CLOUDS BELOW 12,000 FEET WITH NO
SIGNIFICANT WEATHER AND/OR OBSTRUCTIONS TO VISIBILITY.

OHZ001>008-015>018-024>027-034-035-043-044-011200-
   NORTHWEST OHIO

CITY           SKY/WX    TMP DP  RH WIND       PRES   REMARKS
DEFIANCE       LGT SNOW  17  13  84 NE3       30.41S FOG
FINDLAY        LGT SNOW  21  17  84 E3        30.38S FOG
TOLEDO EXPRESS LGT SNOW  16  13  88 CALM      30.41S FOG
TOLEDO EXEC    LGT SNOW  18  13  80 CALM      30.42S
LIMA           LGT SNOW  23  19  85 CALM      30.36S VSB 1
$$

OHZ009>014-019>023-028>033-038-089-011200-
   NORTHEAST OHIO

CITY           SKY/WX    TMP DP  RH WIND       PRES   REMARKS
CLE-HOPKINS    LGT SNOW  20  17  88 E3        30.43F FOG
CLE-LAKEFRONT  LGT SNOW  22  19  89 SE5       30.41F FOG     WCI  16
CUY CO. ARPT   NOT AVBL
LORAIN-ELYRIA  LGT SNOW  20  17  88 SE3       30.40F FOG
ASHTABULA      LGT SNOW  18  14  84 SE5       30.42F FOG     WCI  11
AKRON-CANTON   LGT SNOW  22  18  85 SE5       30.38S VSB 3/4 WCI  16
WOOSTER        LGT SNOW  19  18  93 SE3       30.38F VSB 1
MANSFIELD      LGT SNOW  22  21  96 S8        30.35F VSB 1   WCI  12
YOUNGSTOWN     HVY SNOW  20  17  88 SE6       30.39F VSB 1/4 WCI  12
$$

OHZ042-051>053-060>062-070>072-077>081-011200-
  SOUTHWEST OHIO

CITY           SKY/WX    TMP DP  RH WIND       PRES   REMARKS
CINC-COVINGTON LGT SNOW  28  24  85 CALM      30.40R FOG
CINC-LUNKEN    MIX PCPN  27  24  89 SW3       30.44R
HAMILTON       LGT SNOW  29  27  92 CALM      30.41R FOG
DAYTON         NOT AVBL
WRIGHT-PAT AFB NOT AVBL
DAYTON GENERAL LGT SNOW  29  28  96 W3        30.37R VSB 1
WILMINGTON     MIX PCPN  30  27  88 S6        30.37S FOG     WCI  24
$$

OHZ036-037-039>041-045>050-054>059-063>069-073>076-082>088-011200-
  CENTRAL AND SOUTHEAST OHIO

CITY           SKY/WX    TMP DP  RH WIND       PRES   REMARKS
COLUMBUS       LGT SNOW  24  22  91 CALM      30.39R VSB 1
OSU AIRPORT    LGT SNOW  24  22  91 CALM      30.39R FOG
BOLTON FIELD   NOT AVBL
RICKENBACK AFB NOT AVBL
NEWARK         LGT SNOW  26  24  92 CALM      30.38S FOG
MARION         LGT SNOW  24  21  88 S8        30.38S VSB 1   WCI  15
LANCASTER      FRZ RAIN  29  27  92 SE9       30.39S FOG     WCI  20
ZANESVILLE     MIX PCPN  26  23  88 S6        30.39S WCI  19
NEW PHILLY     LGT SNOW  24  21  88 CALM      30.40F VSB 3/4
$$



USA.gov is the U.S. government's official web portal to all federal, state and local government web resources and services.